Location: Chevoux
(46.3801°N, 4.9476°E)
Time: 01:57:51
(UTC+00:00)

Transit 2A - Visible Passes

Search period start: 12 May 2021 00:00
Search period end: 22 May 2021 00:00
Orbit: 602 x 957 km, 66.7° (Epoch: 11 May)

Date Brightness Start Highest point End Pass type
(mag) Time Alt. Az. Time Alt. Az. Time Alt. Az.
12 May 7.4 00:33:16 20° ESE 00:33:16 20° ESE 00:36:17 10° ENE visible
12 May 6.0 02:13:44 27° WSW 02:15:51 50° NW 02:20:07 10° NNE visible
12 May 7.9 23:59:52 13° E 23:59:52 13° E 00:01:09 10° E visible
13 May 5.5 01:40:20 45° SW 01:41:38 75° NW 01:46:00 10° NNE visible
13 May 7.9 03:23:10 10° WNW 03:25:31 14° NW 03:27:51 10° N visible
14 May 5.5 01:06:55 64° S 01:07:28 74° ESE 01:11:49 10° NE visible
14 May 7.6 02:47:58 10° W 02:51:04 18° NW 02:54:08 10° N visible
15 May 6.0 00:33:27 48° ESE 00:33:27 48° ESE 00:37:32 10° NE visible
15 May 7.2 02:13:54 14° W 02:16:40 24° NW 02:20:15 10° NNE visible
15 May 6.8 23:59:57 30° E 23:59:57 30° E 00:03:08 10° NE visible
16 May 6.8 01:40:24 23° W 01:42:19 33° NW 01:46:17 10° NNE visible
16 May 7.4 23:26:24 19° E 23:26:24 19° E 23:28:32 10° ENE visible
17 May 6.2 01:06:52 37° W 01:08:02 47° NW 01:12:15 10° NNE visible
17 May 8.2 02:51:32 10° NW 02:52:17 10° NNW 02:53:02 10° NNW visible
17 May 7.9 22:52:50 12° E 22:52:50 12° E 22:53:32 10° ENE visible
18 May 5.6 00:33:17 62° W 00:33:48 69° NW 00:38:09 10° NNE visible
18 May 8.0 02:15:36 10° WNW 02:17:45 13° NNW 02:19:54 10° N visible
18 May 5.4 23:59:40 79° ESE 23:59:40 79° ESE 00:03:59 10° NE visible
19 May 7.8 01:40:20 10° W 01:43:17 17° NW 01:46:13 10° N visible
19 May 6.0 23:26:00 49° E 23:26:00 49° E 23:29:43 10° NE visible
20 May 7.5 01:06:27 15° W 01:08:52 23° NW 01:12:22 10° N visible
20 May 6.6 22:52:17 31° E 22:52:17 31° E 22:55:20 10° NE visible
21 May 7.0 00:32:44 23° W 00:34:31 31° NW 00:38:25 10° NNE visible
21 May 7.2 22:18:31 20° E 22:18:31 20° E 22:20:47 10° ENE visible
